Date String (YYYY-MM-DD hh:mm:ss) UTC,Instrument flags,absolute air pressure of the measurement (hPa),sample flow rate (lpm),inlet stack bypass flow (lpm),air temperature of the measurement (°C),ambient temperature measured by the external sensor (°C),aerosol sample conditioner tube jacket temperature (°C),OPC LED temperature (°C),internal box temperature (°C),relative humidity of the measurement (%),span deviation,mass concentration of particles derived from Lorenz-Mie calculation of OPC scattering (μg/m³),mass concentration of particles derived from Lorenz-Mie calculation of OPC scattering (μg/m³),mass concentration of particles derived from Lorenz-Mie calculation of OPC scattering (μg/m³)
DateTimeUTC,F1_M11,P_M11,Q1_M11,Q2_M11,T1_M11,T2_M11,T3_M11,T4_M11,T5_M11,U1_M11,ZSPAN_M11,X0_M11,X2_M11,X1_M11
2023-10-28 12:00:00,SystemResetWarning,0830.7,5.00,000.00,021.6,020.1,000.0,030.0,023.0,12.0,0000.0,0010.95,0004.20,0003.45
2023-10-28 12:01:00,SystemResetWarning,0830.7,5.00,000.00,021.6,020.5,000.0,029.9,023.3,12.0,0000.0,0010.15,0004.27,0003.45
2023-10-28 12:02:00,SystemResetWarning,0830.8,5.00,000.00,021.7,021.4,000.0,029.9,023.6,12.0,0000.0,0010.16,0004.33,0003.46
2023-10-28 12:03:00,SystemResetWarning,0830.8,4.99,000.00,021.9,021.9,000.0,029.9,023.8,11.9,0000.0,0009.64,0004.36,0003.46
2023-10-28 12:04:00,SystemResetWarning,0830.8,5.00,000.00,021.9,021.7,000.0,030.0,023.7,11.9,0000.0,0009.34,0004.36,0003.48
2023-10-28 12:05:00,SystemResetWarning,0830.8,5.01,000.00,021.9,021.5,000.0,030.0,023.6,11.9,0000.0,0008.76,0004.37,0003.50
2023-10-28 12:06:00,SystemResetWarning,0830.8,5.00,000.00,021.9,021.3,000.0,030.1,023.5,12.0,0000.0,0008.87,0004.33,0003.51
2023-10-28 12:07:00,SystemResetWarning,0830.8,4.99,000.00,021.9,021.1,000.0,030.1,023.4,12.0,0000.0,0008.76,0004.28,0003.50
2023-10-28 12:08:00,SystemResetWarning,0830.8,4.99,000.00,021.8,021.0,000.0,030.1,023.4,12.0,0000.0,0008.93,0004.32,0003.51
2023-10-28 12:09:00,SystemResetWarning,0830.7,5.00,000.00,021.8,020.9,000.0,030.1,023.3,12.1,0000.0,0008.95,0004.33,0003.52
2023-10-28 12:10:00,SystemResetWarning,0830.7,5.01,000.00,021.8,020.8,000.0,030.1,023.3,12.1,0000.0,0009.45,0004.30,0003.52
2023-10-28 12:11:00,SystemResetWarning,0830.7,5.01,000.00,021.8,020.7,000.0,030.1,023.3,12.2,0000.0,0009.55,0004.28,0003.53
2023-10-28 12:12:00,SystemResetWarning,0830.7,5.01,000.00,021.8,020.6,000.0,030.1,023.2,12.2,0000.0,0009.60,0004.22,0003.54
2023-10-28 12:13:00,SystemResetWarning,0830.7,5.00,000.00,021.7,020.5,000.0,030.1,023.2,12.2,0000.0,0010.28,0004.16,0003.54
2023-10-28 12:14:00,SystemResetWarning,0830.8,5.00,000.00,021.7,020.4,000.0,030.1,023.2,12.2,0000.0,0011.40,0004.13,0003.53
2023-10-28 12:15:00,SystemResetWarning,0830.9,5.00,000.00,021.7,020.4,000.0,030.1,023.2,12.2,0000.0,0011.48,0004.16,0003.52
2023-10-28 12:16:00,SystemResetWarning,0830.9,4.99,000.00,021.7,020.3,000.0,030.1,023.1,12.3,0000.0,0011.80,0004.19,0003.52
2023-10-28 12:17:00,SystemResetWarning,0830.9,5.00,000.00,021.7,020.3,000.0,030.1,023.1,12.3,0000.0,0011.96,0004.20,0003.53
2023-10-28 12:18:00,SystemResetWarning,0831.0,5.01,000.00,021.6,020.2,000.0,030.1,023.1,12.4,0000.0,0012.04,0004.23,0003.53
2023-10-28 12:19:00,SystemResetWarning,0831.0,5.00,000.00,021.6,020.2,000.0,030.1,023.1,12.4,0000.0,0012.61,0004.24,0003.52
2023-10-28 12:20:00,SystemResetWarning,0831.0,5.00,000.00,021.6,020.2,000.0,030.1,023.1,12.5,0000.0,0013.50,0004.26,0003.52
2023-10-28 12:21:00,SystemResetWarning,0831.1,4.99,000.00,021.6,020.1,000.0,030.1,023.1,12.4,0000.0,0013.26,0004.28,0003.52
2023-10-28 12:22:00,SystemResetWarning,0831.0,4.99,000.00,021.6,020.1,000.0,030.1,023.0,12.5,0000.0,0013.19,0004.31,0003.51
2023-10-28 12:23:00,SystemResetWarning,0831.0,5.00,000.00,021.6,020.0,000.0,030.0,023.0,12.5,0000.0,0013.11,0004.32,0003.51
2023-10-28 12:24:00,SystemResetWarning,0831.0,5.00,000.00,021.5,020.0,000.0,030.0,023.0,12.5,0000.0,0013.44,0004.37,0003.51
2023-10-28 12:25:00,SystemResetWarning,0831.0,5.01,000.00,021.5,020.0,000.0,030.0,022.9,12.5,0000.0,0012.17,0004.37,0003.52
2023-10-28 12:26:00,SystemResetWarning,0831.0,5.00,000.00,021.5,020.0,000.0,030.0,022.9,12.6,0000.0,0012.06,0004.37,0003.52
2023-10-28 12:27:00,SystemResetWarning,0831.0,4.99,000.00,021.5,020.0,000.0,030.0,022.9,12.6,0000.0,0011.96,0004.34,0003.52
2023-10-28 12:28:00,SystemResetWarning,0831.0,5.00,000.00,021.5,019.9,000.0,030.0,022.9,12.6,0000.0,0011.86,0004.37,0003.51
2023-10-28 12:29:00,SystemResetWarning,0831.1,4.99,000.00,021.5,019.9,000.0,029.9,022.9,12.6,0000.0,0012.26,0004.38,0003.51
2023-10-28 12:30:00,SystemResetWarning,0831.1,5.00,000.00,021.4,019.9,000.0,029.9,022.9,12.6,0000.0,0013.05,0004.39,0003.52
2023-10-28 12:31:00,SystemResetWarning,0831.2,5.00,000.00,021.4,019.9,000.0,029.9,022.9,12.7,0000.0,0012.34,0004.32,0003.53
2023-10-28 12:32:00,SystemResetWarning,0831.1,5.00,000.00,021.4,019.9,000.0,029.9,022.9,12.7,0000.0,0012.57,0004.31,0003.53
2023-10-28 12:33:00,SystemResetWarning,0831.1,5.00,000.00,021.4,020.0,000.0,029.9,022.9,12.7,0000.0,0012.65,0004.35,0003.54
2023-10-28 12:34:00,SystemResetWarning,0831.0,5.00,000.00,021.4,020.0,000.0,029.9,022.9,12.7,0000.0,0013.84,0004.39,0003.55
2023-10-28 12:35:00,SystemResetWarning,0831.0,5.01,000.00,021.4,020.0,000.0,029.9,022.9,12.7,0000.0,0014.52,0004.39,0003.55
2023-10-28 12:36:00,SystemResetWarning,0830.9,5.01,000.00,021.4,020.0,000.0,029.9,022.9,12.6,0000.0,0014.13,0004.40,0003.57
2023-10-28 12:37:00,SystemResetWarning,0831.0,5.00,000.00,021.4,019.9,000.0,029.8,022.9,12.6,0000.0,0014.02,0004.41,0003.58
2023-10-28 12:38:00,SystemResetWarning,0830.9,5.01,000.00,021.4,019.9,000.0,029.8,022.9,12.7,0000.0,0014.00,0004.44,0003.60
2023-10-28 12:39:00,SystemResetWarning,0830.9,5.00,000.00,021.4,019.9,000.0,029.8,022.9,12.7,0000.0,0013.97,0004.45,0003.60
2023-10-28 12:40:00,SystemResetWarning,0830.9,5.00,000.00,021.4,020.2,000.0,029.7,023.1,12.7,0000.0,0013.51,0004.43,0003.61
2023-10-28 12:41:00,SystemResetWarning,0830.9,5.00,000.00,021.6,021.1,000.0,029.7,023.4,12.6,0000.0,0013.82,0004.45,0003.62
2023-10-28 12:42:00,SystemResetWarning,0830.9,5.00,000.00,021.7,021.5,000.0,029.8,023.6,12.6,0000.0,0014.55,0004.48,0003.62
2023-10-28 12:43:00,SystemResetWarning,0830.9,4.99,000.00,021.7,021.4,000.0,029.8,023.5,12.6,0000.0,0014.21,0004.51,0003.63
2023-10-28 12:44:00,SystemResetWarning,0831.0,4.98,000.00,021.7,021.3,000.0,029.9,023.4,12.5,0000.0,0013.87,0004.51,0003.65
2023-10-28 12:45:00,SystemResetWarning,0831.1,5.01,000.00,021.7,021.1,000.0,029.9,023.3,12.5,0000.0,0013.19,0004.52,0003.66
2023-10-28 12:46:00,SystemResetWarning,0831.1,5.00,000.00,021.7,021.0,000.0,029.9,023.3,12.5,0000.0,0011.79,0004.53,0003.68
2023-10-28 12:47:00,SystemResetWarning,0831.1,5.00,000.00,021.7,020.8,000.0,029.9,023.2,12.5,0000.0,0012.17,0004.58,0003.70
2023-10-28 12:48:00,SystemResetWarning,0831.1,5.00,000.00,021.7,020.7,000.0,030.0,023.2,12.5,0000.0,0012.55,0004.62,0003.71
2023-10-28 12:49:00,SystemResetWarning,0831.1,5.00,000.00,021.7,020.6,000.0,030.0,023.2,12.5,0000.0,0012.73,0004.64,0003.72
2023-10-28 12:50:00,SystemResetWarning,0831.2,5.00,000.00,021.7,020.5,000.0,030.0,023.2,12.5,0000.0,0014.01,0004.65,0003.74
2023-10-28 12:51:00,SystemResetWarning,0831.1,4.99,000.00,021.6,020.4,000.0,030.0,023.2,12.6,0000.0,0014.10,0004.69,0003.76
2023-10-28 12:52:00,SystemResetWarning,0831.1,5.00,000.00,021.6,020.4,000.0,030.0,023.2,12.6,0000.0,0013.68,0004.71,0003.77
2023-10-28 12:53:00,SystemResetWarning,0831.2,5.02,000.00,021.6,020.3,000.0,030.0,023.1,12.6,0000.0,0012.38,0004.74,0003.79
2023-10-28 12:54:00,SystemResetWarning,0831.1,5.00,000.00,021.6,020.3,000.0,030.0,023.1,12.7,0000.0,0012.32,0004.74,0003.80
2023-10-28 12:55:00,SystemResetWarning,0831.0,4.99,000.00,021.6,020.2,000.0,030.0,023.1,12.7,0000.0,0012.73,0004.73,0003.81
2023-10-28 12:56:00,SystemResetWarning,0830.9,4.99,000.00,021.6,020.2,000.0,030.0,023.1,12.8,0000.0,0012.88,0004.70,0003.82
2023-10-28 12:57:00,SystemResetWarning,0830.9,5.00,000.00,021.6,020.2,000.0,029.9,023.1,12.9,0000.0,0012.95,0004.70,0003.82
2023-10-28 12:58:00,SystemResetWarning,0830.9,5.00,000.00,021.5,020.1,000.0,029.9,023.0,12.9,0000.0,0012.68,0004.73,0003.82
2023-10-28 12:59:00,SystemResetWarning,0831.0,5.00,000.00,021.5,020.1,000.0,029.9,023.0,12.9,0000.0,0012.37,0004.71,0003.82
